Change the Weather History Date:

Thursday, July 3, 2014

  Actual Average Record
Temperature  
Mean Temperature 72 °F 75 °F  
Max Temperature 80 °F 86 °F 97 °F (1911)
Min Temperature 63 °F 65 °F 50 °F (1929)
Degree Days  
Heating Degree Days 0 0  
Month to date heating degree days 0 0  
Since 1 June heating degree days 0 12  
Since 1 July heating degree days 0 0  
Cooling Degree Days 7 10  
Month to date cooling degree days 36 30  
Year to date cooling degree days 395 368  
Since 1 June cooling degree days 281 255  
Growing Degree Days 23 (Base 50)    
Moisture  
Dew Point 61 °F    
Average Humidity 68    
Maximum Humidity 97    
Minimum Humidity 39    
Precipitation  
Precipitation 0.00 in 0.12 in 1.42 in (1920)
Month to date precipitation T 0.37  
Year to date precipitation 24.06 22.33  
Snow  
Snow 0.00 in - - ()
Month to date snowfall 0.0  
Since 1 September snowfall 36.8  
Snow Depth 0.00 in    
Sea Level Pressure  
Sea Level Pressure 30.02 in    
Wind  
Wind Speed 7 mph (West)    
Max Wind Speed 15 mph    
Max Gust Speed 21 mph    
Visibility 10 miles    
Events      
T = Trace of Precipitation, MM = Missing Value Source: NWS Daily Summary

Daily Weather History Graph

Daily Weather History Graph

Search for Another Location

Airport or City:

Trip Planner

Search our weather history database for the weather conditions in past years. The results will help you decide how hot, cold, wet, or windy it might be!

Date:

Astronomy

Jul. 03, 2014 Rise Set
Actual Time 6:11 AM EDT 8:57 PM EDT
Civil Twilight 5:39 AM EDT 9:29 PM EDT
Nautical Twilight 5:00 AM EDT 10:08 PM EDT
Astronomical Twilight 4:15 AM EDT 10:53 PM EDT
Moon 12:04 PM EDT (7/3) No Moon Set
Length of Visible Light 15h 49m
Length of Day
14h 46m
Waxing Crescent, 33% of the Moon is Illuminated
Jul 3
Waxing Crescent
Jul 5
First Quarter
Jul 12
Full
Jul 18
Last Quarter
Jul 26
New

Hourly Weather History & Observations

Time (EDT) Temp. Dew Point Humidity Pressure Visibility Wind Dir Wind Speed Gust Speed Precip Events Conditions
12:51 AM 70.0 °F 68.0 °F 93% 29.94 in 10.0 mi SSW 4.6 mph - N/A   Partly Cloudy
1:51 AM 69.1 °F 66.9 °F 93% 29.95 in 10.0 mi Calm Calm - N/A   Partly Cloudy
2:51 AM 70.0 °F 66.0 °F 87% 29.94 in 10.0 mi SW 4.6 mph - N/A   Mostly Cloudy
3:51 AM 69.1 °F 64.9 °F 87% 29.94 in 10.0 mi SW 5.8 mph - N/A   Partly Cloudy
4:51 AM 66.9 °F 64.9 °F 93% 29.94 in 10.0 mi SSW 4.6 mph - N/A   Clear
5:13 AM 68.0 °F 64.9 °F 90% 29.98 in 10.0 mi WSW 6.9 mph - N/A   Mostly Cloudy
5:51 AM 69.1 °F 64.9 °F 87% 29.96 in 10.0 mi Variable 3.5 mph - N/A   Overcast
6:23 AM 69.1 °F 64.9 °F 87% 29.99 in 10.0 mi West 5.8 mph - N/A   Overcast
6:51 AM 68.0 °F 64.9 °F 90% 29.99 in 10.0 mi SW 3.5 mph - N/A   Overcast
7:00 AM 69.1 °F 64.9 °F 87% 30.01 in 10.0 mi WSW 3.5 mph - N/A   Overcast
7:09 AM 68.0 °F 64.9 °F 90% 30.00 in 10.0 mi West 3.5 mph - N/A   Overcast
7:19 AM 69.1 °F 64.9 °F 87% 30.01 in 10.0 mi West 5.8 mph - N/A   Overcast
7:51 AM 69.1 °F 64.9 °F 87% 29.99 in 10.0 mi WNW 8.1 mph - N/A   Overcast
8:28 AM 70.0 °F 64.0 °F 81% 30.03 in 10.0 mi West 6.9 mph - N/A   Overcast
8:51 AM 69.1 °F 64.0 °F 84% 30.01 in 10.0 mi Variable 3.5 mph - N/A   Overcast
9:33 AM 69.1 °F 62.1 °F 78% 30.04 in 10.0 mi WSW 6.9 mph - N/A   Mostly Cloudy
9:51 AM 72.0 °F 63.0 °F 73% 30.02 in 10.0 mi West 5.8 mph - N/A   Mostly Cloudy
10:51 AM 73.9 °F 60.1 °F 62% 30.03 in 10.0 mi West 6.9 mph - N/A   Scattered Clouds
11:51 AM 75.9 °F 54.0 °F 46% 30.04 in 10.0 mi SW 10.4 mph - N/A   Partly Cloudy
12:51 PM 78.1 °F 55.0 °F 45% 30.03 in 10.0 mi West 8.1 mph - N/A   Partly Cloudy
1:51 PM 78.1 °F 55.0 °F 45% 30.03 in 10.0 mi West 9.2 mph - N/A   Scattered Clouds
2:51 PM 79.0 °F 55.0 °F 44% 30.04 in 10.0 mi Variable 5.8 mph 18.4 mph N/A   Scattered Clouds
3:51 PM 78.1 °F 52.0 °F 40% 30.04 in 10.0 mi West 13.8 mph 19.6 mph N/A   Mostly Cloudy
4:51 PM 79.0 °F 54.0 °F 42% 30.04 in 10.0 mi NNW 5.8 mph - N/A   Partly Cloudy
5:51 PM 78.1 °F 55.0 °F 45% 30.04 in 10.0 mi WNW 9.2 mph - N/A   Partly Cloudy
6:51 PM 73.0 °F 55.9 °F 55% 30.04 in 10.0 mi NNW 8.1 mph - N/A   Mostly Cloudy
7:51 PM 71.1 °F 57.0 °F 61% 30.07 in 10.0 mi NW 8.1 mph - N/A   Mostly Cloudy
8:51 PM 71.1 °F 57.9 °F 63% 30.09 in 10.0 mi NNW 4.6 mph - N/A   Overcast
9:51 PM 70.0 °F 57.9 °F 65% 30.10 in 10.0 mi North 5.8 mph - N/A   Overcast
10:51 PM 68.0 °F 57.9 °F 70% 30.11 in 10.0 mi North 10.4 mph - N/A   Mostly Cloudy
11:51 PM 66.0 °F 57.9 °F 75% 30.12 in 10.0 mi North 6.9 mph - N/A   Scattered Clouds